Weather History for KMVY - August, 2012

Change the Weather History Date:

Wednesday, August 29, 2012

  Actual Average (KEWB) Record (KEWB)
Temperature  
Mean Temperature 65 °F -  
Max Temperature 75 °F 79 °F - (-1)
Min Temperature 52 °F 64 °F - (-1)
Growing Degree Days 15 (Base 50)    
Moisture  
Dew Point 53 °F    
Average Humidity 59    
Maximum Humidity 83    
Minimum Humidity 37    
Precipitation  
Precipitation 0.00 in - - ()
Sea Level Pressure  
Sea Level Pressure 29.93 in    
Wind  
Wind Speed 8 mph (North)    
Max Wind Speed 13 mph    
Max Gust Speed 16 mph    
Visibility 10 miles    
Events      
Averages and records for this station are not official NWS values.
T = Trace of Precipitation, MM = Missing Value Source: NWS Daily Summary

Daily Weather History Graph

Daily Weather History Graph

Search for Another Location

Airport or City:

Trip Planner

Search our weather history database for the weather conditions in past years. The results will help you decide how hot, cold, wet, or windy it might be!

Date:

Astronomy

Aug. 29, 2012 Rise Set
Actual Time 6:06 AM EDT 7:19 PM EDT
Civil Twilight 5:37 AM EDT 7:48 PM EDT
Nautical Twilight 5:03 AM EDT 8:22 PM EDT
Astronomical Twilight 4:27 AM EDT 8:58 PM EDT
Moon 5:58 PM EDT (8/29) 3:57 AM EDT (8/29)
Length of Visible Light 14h 10m
Length of Day
13h 13m
Waxing Gibbous, 96% of the Moon is Illuminated
Aug 29
Waxing Gibbous
Aug 31
Full
Sep 8
Last Quarter
Sep 15
New
Sep 22
First Quarter

Hourly Weather History & Observations

Time (EDT) Temp. Dew Point Humidity Pressure Visibility Wind Dir Wind Speed Gust Speed Precip Events Conditions
12:53 AM 72.0 °F 62.1 °F 71% 29.84 in 10.0 mi North 9.2 mph - N/A   Partly Cloudy
1:53 AM 72.0 °F 59.0 °F 64% 29.85 in 10.0 mi North 9.2 mph - N/A   Partly Cloudy
2:53 AM 72.0 °F 57.9 °F 61% 29.86 in 10.0 mi North 11.5 mph - N/A   Overcast
3:53 AM 70.0 °F 57.0 °F 63% 29.86 in 10.0 mi North 12.7 mph - N/A   Partly Cloudy
4:53 AM 66.9 °F 55.9 °F 68% 29.88 in 10.0 mi North 8.1 mph - N/A   Partly Cloudy
5:53 AM 64.9 °F 54.0 °F 68% 29.90 in 10.0 mi North 6.9 mph - N/A   Clear
6:53 AM 66.0 °F 55.0 °F 68% 29.92 in 10.0 mi North 6.9 mph - N/A   Clear
7:53 AM 69.1 °F 57.0 °F 65% 29.94 in 10.0 mi North 10.4 mph - N/A   Clear
8:53 AM 70.0 °F 55.9 °F 61% 29.94 in 10.0 mi North 11.5 mph - N/A   Partly Cloudy
9:53 AM 73.0 °F 55.0 °F 53% 29.95 in 10.0 mi North 9.2 mph - N/A   Partly Cloudy
10:53 AM 73.9 °F 52.0 °F 46% 29.96 in 10.0 mi Variable 5.8 mph - N/A   Partly Cloudy
11:53 AM 73.9 °F 51.1 °F 45% 29.96 in 10.0 mi NNW 9.2 mph - N/A   Clear
12:53 PM 73.9 °F 48.9 °F 41% 29.95 in 10.0 mi Variable 5.8 mph 16.1 mph N/A   Clear
1:53 PM 75.0 °F 46.9 °F 37% 29.95 in 10.0 mi NW 9.2 mph - N/A   Clear
2:53 PM 75.0 °F 48.0 °F 38% 29.94 in 10.0 mi WNW 6.9 mph - N/A   Clear
3:53 PM 75.0 °F 48.9 °F 40% 29.93 in 10.0 mi NW 6.9 mph - N/A   Clear
4:53 PM 75.9 °F 50.0 °F 40% 29.93 in 10.0 mi NNW 3.5 mph - N/A   Clear
5:53 PM 73.0 °F 52.0 °F 48% 29.93 in 10.0 mi SE 4.6 mph - N/A   Clear
6:53 PM 70.0 °F 54.0 °F 57% 29.94 in 10.0 mi SE 4.6 mph - N/A   Clear
7:53 PM 64.0 °F 54.0 °F 70% 29.95 in 10.0 mi SSE 3.5 mph - N/A   Clear
8:53 PM 57.0 °F 52.0 °F 83% 29.97 in 10.0 mi Calm Calm - N/A   Clear
9:53 PM 55.9 °F 50.0 °F 80% 29.98 in 10.0 mi Calm Calm - N/A   Clear
10:53 PM 52.0 °F 46.9 °F 83% 29.98 in 10.0 mi Calm Calm - N/A   Clear